Location: Famechon
(49.7599°N, 2.0615°E)
Time: 07:09:31
(UTC+00:00)

Cosmos 540 Rocket - Pass Details

Date: 03 February 2023
Orbit: 740 x 751 km, 74.1° (Epoch: 24 March)

Event Time Altitude Azimuth Distance (km) Brightness Sun altitude
Rises 18:30:08 0° 335° (NNW) 3,209 7.0 -16.4°
Reaches altitude 10° 18:32:31 10° 334° (NNW) 2,279 6.2 -16.8°
Maximum altitude 18:37:40 75° 250° (WSW) 777 3.6 -17.6°
Drops below altitude 10° 18:42:45 10° 165° (SSE) 2,255 5.8 -18.4°
Sets 18:45:06 0° 164° (SSE) 3,172 6.6 -18.8°
